TimePDT,TemperatureF,Dew PointF,Humidity,Sea Level PressureIn,VisibilityMPH,Wind Direction,Wind SpeedMPH,Gust SpeedMPH,PrecipitationIn,Events,Conditions,WindDirDegrees,DateUTC
12:53 AM,75.9,44.1,32,29.88,10.0,South,5.8,-,N/A,,Clear,190,2013-07-25 07:53:00
1:53 AM,73.9,45.0,35,29.89,10.0,SW,3.5,-,N/A,,Clear,230,2013-07-25 08:53:00
2:53 AM,72.0,45.0,38,29.91,10.0,SW,4.6,-,N/A,,Clear,230,2013-07-25 09:53:00
3:53 AM,73.0,43.0,34,29.91,10.0,WSW,6.9,-,N/A,,Clear,240,2013-07-25 10:53:00
4:53 AM,62.1,44.1,52,29.92,10.0,South,4.6,-,N/A,,Clear,180,2013-07-25 11:53:00
5:53 AM,68.0,42.1,39,29.93,10.0,SSW,6.9,-,N/A,,Clear,200,2013-07-25 12:53:00
6:53 AM,73.0,43.0,34,29.94,10.0,SW,3.5,-,N/A,,Clear,230,2013-07-25 13:53:00
7:53 AM,75.0,44.1,33,29.96,10.0,WNW,5.8,-,N/A,,Clear,290,2013-07-25 14:53:00
8:53 AM,80.1,45.0,29,29.97,10.0,West,6.9,-,N/A,,Clear,280,2013-07-25 15:53:00
9:53 AM,84.0,41.0,22,29.96,10.0,WNW,10.4,-,N/A,,Clear,290,2013-07-25 16:53:00
10:53 AM,88.0,39.0,18,29.96,10.0,West,10.4,-,N/A,,Clear,280,2013-07-25 17:53:00
11:53 AM,91.0,43.0,19,29.95,10.0,West,10.4,-,N/A,,Clear,270,2013-07-25 18:53:00
12:53 PM,93.9,43.0,17,29.93,10.0,West,11.5,-,N/A,,Clear,280,2013-07-25 19:53:00
1:53 PM,96.1,39.0,14,29.91,10.0,West,9.2,18.4,N/A,,Clear,270,2013-07-25 20:53:00
2:53 PM,98.1,41.0,14,29.90,10.0,West,8.1,-,N/A,,Clear,270,2013-07-25 21:53:00
3:53 PM,98.1,41.0,14,29.89,10.0,Variable,5.8,-,N/A,,Clear,0,2013-07-25 22:53:00
4:53 PM,98.1,39.9,13,29.88,10.0,West,5.8,-,N/A,,Clear,260,2013-07-25 23:53:00
5:53 PM,99.0,39.9,13,29.87,10.0,West,5.8,-,N/A,,Clear,260,2013-07-26 00:53:00
6:53 PM,98.1,39.9,13,29.86,10.0,WSW,3.5,-,N/A,,Clear,250,2013-07-26 01:53:00
7:53 PM,86.0,55.0,35,29.86,9.0,East,4.6,-,N/A,,Clear,80,2013-07-26 02:53:00
8:53 PM,75.9,48.0,37,29.87,10.0,ESE,3.5,-,N/A,,Clear,120,2013-07-26 03:53:00
9:53 PM,80.1,46.0,30,29.89,10.0,SW,11.5,-,N/A,,Clear,220,2013-07-26 04:53:00
10:53 PM,78.1,44.1,30,29.91,10.0,SSW,6.9,-,N/A,,Clear,200,2013-07-26 05:53:00
11:53 PM,75.9,45.0,33,29.91,10.0,South,5.8,-,N/A,,Clear,190,2013-07-26 06:53:00